Weather History for St. George, AK

Change the Weather History Date:

Friday, March 29, 2013

  Actual Average Record
Temperature  
Mean Temperature 28 °F -  
Max Temperature 33 °F 29 °F 39 °F (2003)
Min Temperature 24 °F 22 °F 10 °F (2005)
Degree Days  
Heating Degree Days 36    
Moisture  
Dew Point 27 °F    
Average Humidity 99    
Maximum Humidity 100    
Minimum Humidity 93    
Precipitation  
Precipitation 0.00 in - - ()
Sea Level Pressure  
Sea Level Pressure 29.79 in    
Wind  
Wind Speed 22 mph (North)    
Max Wind Speed 30 mph    
Max Gust Speed 41 mph    
Visibility 3 miles    
Events Snow    
Averages and records for this station are not official NWS values.
T = Trace of Precipitation, MM = Missing Value Source: NWS Daily Summary

Daily Weather History Graph

Daily Weather History Graph

Search for Another Location

Airport:

Trip Planner

Search our weather history database for the weather conditions in past years. The results will help you decide how hot, cold, wet, or windy it might be!

Date:

Astronomy

Mar. 29, 2013 Rise Set
Actual Time 8:55 AM AKDT 9:52 PM AKDT
Civil Twilight 8:16 AM AKDT 10:31 PM AKDT
Nautical Twilight 7:30 AM AKDT 11:18 PM AKDT
Astronomical Twilight 6:38 AM AKDT 12:09 AM AKDT
Moon 12:30 AM AKDT (3/29) 9:38 AM AKDT (3/29)
Length of Visible Light 14h 14m
Length of Day
12h 57m
Waning Gibbous, 92% of the Moon is Illuminated
Mar 29
Waning Gibbous
Apr 2
Last Quarter
Apr 10
New
Apr 18
First Quarter
Apr 25
Full

Hourly Weather History & Observations

Time (AKDT) Temp. Windchill Dew Point Humidity Pressure Visibility Wind Dir Wind Speed Gust Speed Precip Events Conditions
12:07 AM 33.8 °F 22.2 °F 33.8 °F 100% 29.45 in 3.0 mi NNE 20.7 mph - N/A   Overcast
12:53 AM 33.1 °F 21.5 °F 33.1 °F 100% 29.43 in 4.0 mi NNE 19.6 mph - N/A   Overcast
1:53 AM 33.1 °F 21.2 °F 33.1 °F 100% 29.46 in 2.5 mi North 20.7 mph - 0.00 in Snow Light Snow
2:01 AM 33.8 °F 21.9 °F 33.8 °F 100% 29.49 in 4.0 mi NNE 21.9 mph 26.5 mph 0.00 in Snow Light Snow
2:53 AM 33.1 °F 21.2 °F 33.1 °F 100% 29.47 in 6.0 mi North 20.7 mph - 0.00 in   Overcast
3:53 AM 33.1 °F 21.2 °F 33.1 °F 100% 29.50 in 5.0 mi North 20.7 mph - 0.00 in   Overcast
4:19 AM 32.0 °F 21.2 °F 32.0 °F 100% 29.55 in 2.5 mi North 16.1 mph 26.5 mph N/A   Overcast
4:26 AM 32.0 °F 20.5 °F 32.0 °F 100% 29.55 in 4.0 mi North 18.4 mph 25.3 mph N/A   Overcast
4:53 AM 32.0 °F 20.1 °F 32.0 °F 100% 29.54 in 3.0 mi North 19.6 mph 27.6 mph N/A   Overcast
5:53 AM 32.0 °F 19.8 °F 32.0 °F 100% 29.56 in 6.0 mi North 20.7 mph 28.8 mph N/A   Overcast
6:53 AM 32.0 °F 18.9 °F 32.0 °F 100% 29.57 in 8.0 mi North 24.2 mph 32.2 mph 0.00 in   Overcast
7:53 AM 32.0 °F 20.1 °F 32.0 °F 100% 29.61 in 8.0 mi North 19.6 mph 31.1 mph N/A   Overcast
8:45 AM 30.2 °F 17.8 °F 30.2 °F 100% 29.68 in 6.0 mi North 19.6 mph 29.9 mph N/A   Overcast
8:53 AM 30.9 °F 18.7 °F 30.0 °F 96% 29.65 in 3.0 mi North 19.6 mph 41.4 mph 0.00 in Snow Light Snow
9:02 AM 30.2 °F 18.1 °F 30.2 °F 100% 29.69 in 2.5 mi North 18.4 mph 31.1 mph 0.00 in Snow Light Snow
9:09 AM 30.2 °F 17.8 °F 30.2 °F 100% 29.70 in 4.0 mi North 19.6 mph 35.7 mph 0.00 in Snow Light Snow
9:28 AM 30.2 °F 18.5 °F 30.2 °F 100% 29.71 in 2.0 mi North 17.3 mph 33.4 mph 0.00 in Snow Light Snow
9:53 AM 30.0 °F 17.9 °F 30.0 °F 100% 29.68 in 2.5 mi NW 18.4 mph 27.6 mph 0.00 in Snow Light Snow
10:20 AM 30.2 °F 17.1 °F 30.2 °F 100% 29.73 in 1.5 mi North 21.9 mph 32.2 mph 0.00 in Snow Light Snow
10:28 AM 30.2 °F 18.1 °F 30.2 °F 100% 29.74 in 1.0 mi North 18.4 mph 35.7 mph 0.00 in Snow Light Snow
10:38 AM 28.4 °F 14.4 °F 28.4 °F 100% 29.74 in 1.8 mi NNW 23.0 mph 34.5 mph 0.00 in Snow Light Snow
10:53 AM 28.9 °F 15.1 °F 28.9 °F 100% 29.72 in 1.2 mi North 23.0 mph 34.5 mph 0.00 in Snow Light Snow
11:29 AM 28.4 °F 14.1 °F 28.4 °F 100% 29.76 in 0.8 mi North 24.2 mph 34.5 mph 0.00 in Snow Light Snow
11:38 AM 28.4 °F 14.1 °F 28.4 °F 100% 29.77 in 1.2 mi North 24.2 mph 35.7 mph 0.00 in Snow Light Snow
11:53 AM 28.0 °F 13.9 °F 28.0 °F 100% 29.75 in 1.0 mi North 23.0 mph 38.0 mph 0.00 in Snow Light Snow
12:07 PM 28.4 °F 13.8 °F 28.4 °F 100% 29.79 in 1.2 mi North 25.3 mph 34.5 mph 0.00 in Snow Light Snow
12:33 PM 26.6 °F 11.7 °F 26.6 °F 100% 29.80 in 1.0 mi North 24.2 mph 33.4 mph 0.00 in Snow Light Snow
12:44 PM 26.6 °F 11.4 °F 26.6 °F 100% 29.81 in 0.8 mi North 25.3 mph 34.5 mph 0.00 in Snow Light Snow
12:53 PM 27.0 °F 11.3 °F 27.0 °F 100% 29.77 in 1.0 mi North 27.6 mph 33.4 mph 0.00 in Snow Light Snow
1:31 PM 26.6 °F 10.8 °F 26.6 °F 100% 29.82 in 1.2 mi North 27.6 mph 35.7 mph 0.00 in Snow Light Snow
1:53 PM 26.1 °F 9.8 °F 26.1 °F 100% 29.79 in 2.0 mi North 28.8 mph 33.4 mph 0.00 in   Overcast
2:53 PM 25.0 °F 8.1 °F 25.0 °F 100% 29.83 in 2.0 mi North 29.9 mph 38.0 mph 0.00 in   Overcast
3:43 PM 24.8 °F 10.0 °F 24.8 °F 100% 29.89 in 4.0 mi North 21.9 mph 33.4 mph 0.00 in   Overcast
3:53 PM 25.0 °F 9.5 °F 24.1 °F 96% 29.86 in 3.0 mi North 24.2 mph 31.1 mph 0.00 in   Overcast
4:04 PM 24.8 °F 8.7 °F 24.8 °F 100% 29.90 in 2.0 mi North 26.5 mph 29.9 mph N/A   Overcast
4:12 PM 24.8 °F 9.6 °F 24.8 °F 100% 29.90 in 1.5 mi North 23.0 mph 32.2 mph 0.00 in Snow Light Snow
4:23 PM 24.8 °F 10.3 °F 24.8 °F 100% 29.91 in 0.8 mi North 20.7 mph - 0.00 in Snow Light Snow
4:35 PM 24.8 °F 9.3 °F 24.8 °F 100% 29.91 in 1.0 mi North 24.2 mph - 0.00 in Snow Light Snow
4:43 PM 24.8 °F 9.6 °F 24.8 °F 100% 29.92 in 1.8 mi North 23.0 mph 29.9 mph 0.00 in   Overcast
4:53 PM 25.0 °F 9.9 °F 24.1 °F 96% 29.88 in 1.8 mi North 23.0 mph - 0.00 in   Overcast
5:00 PM 24.8 °F 9.3 °F 24.8 °F 100% 29.92 in 2.0 mi North 24.2 mph - N/A   Overcast
5:17 PM 24.8 °F 9.3 °F 24.8 °F 100% 29.93 in 3.0 mi North 24.2 mph - N/A   Overcast
5:36 PM 24.8 °F 8.4 °F 24.8 °F 100% 29.93 in 2.5 mi North 27.6 mph - N/A   Overcast
5:53 PM 24.1 °F 7.7 °F 24.1 °F 100% 29.91 in 2.5 mi North 26.5 mph - N/A   Overcast
6:08 PM 24.8 °F 9.0 °F 24.8 °F 100% 29.95 in 3.0 mi North 25.3 mph - N/A   Overcast
6:53 PM 24.1 °F 7.7 °F 24.1 °F 100% 29.93 in 3.0 mi North 26.5 mph - N/A   Overcast
7:53 PM 24.1 °F 7.7 °F 23.0 °F 96% 29.96 in 2.0 mi North 26.5 mph 34.5 mph N/A   Overcast
8:05 PM 24.8 °F 7.9 °F 23.0 °F 93% 29.97 in 1.5 mi North 29.9 mph - N/A   Overcast
8:10 PM 24.8 °F 7.9 °F 23.0 °F 93% 29.98 in 2.0 mi North 29.9 mph - N/A   Overcast
8:21 PM 24.8 °F 7.9 °F 23.0 °F 93% 29.98 in 3.0 mi North 29.9 mph 36.8 mph N/A   Overcast
8:41 PM 24.8 °F 8.1 °F 23.0 °F 93% 29.99 in 4.0 mi North 28.8 mph 34.5 mph 0.00 in   Overcast
8:53 PM 24.1 °F 6.9 °F 23.0 °F 96% 29.96 in 3.0 mi North 29.9 mph 38.0 mph 0.00 in   Mostly Cloudy
9:03 PM 24.8 °F 8.1 °F 23.0 °F 93% 29.99 in 4.0 mi North 28.8 mph 35.7 mph N/A   Mostly Cloudy
9:53 PM 24.1 °F 7.7 °F 23.0 °F 96% 29.99 in 7.0 mi NNE 26.5 mph 33.4 mph N/A   Overcast
10:09 PM 24.8 °F 9.0 °F 23.0 °F 93% 30.04 in 7.0 mi NNE 25.3 mph - N/A   Overcast
10:53 PM 24.1 °F 7.7 °F 23.0 °F 96% 30.03 in 9.0 mi North 26.5 mph - N/A   Overcast
11:53 PM 24.1 °F 7.4 °F 23.0 °F 96% 30.05 in 10.0 mi NNE 27.6 mph - N/A   Overcast